{"data":{"norad_id":63753,"intl_designator":"2025-089C","name":"STARLINK-11706 [DTC]","alt_names":[],"object_type":"PAYLOAD","status":"ACTIVE","operator":null,"country":"US","launch_date":"2025-04-29","launch_site_code":"AFETR","launch_vehicle":null,"mission":null,"orbit_class":"UNKNOWN","rcs_meters":null,"size_class":null,"mass_kg":null,"dimensions":null,"purposes":["comms"],"wikipedia_slug":null,"has_3d_model":false,"image_url":null,"decayed_at":null,"tle_current":{"epoch":"2026-05-25T03:33:45.411264Z","epoch_age_seconds":62305,"freshness":"FRESH","line1":"1 63753U 25089C   26145.14844226  .00144569  00000+0  11078-2 0  9994","line2":"2 63753  42.9992 191.0956 0000985 280.7220  79.3537 15.70901835 62163","mean_motion":15.70901835,"eccentricity":9.85e-5,"inclination_deg":42.9992,"raan_deg":191.0956,"arg_perigee_deg":280.722,"mean_anomaly_deg":79.3537,"bstar":0.0011078,"rev_number":6216,"period_min":91.667090069953,"perigee_km":355.65498751318,"apogee_km":356.98167521346,"semimajor_km":6734.4553313633,"source":"CELESTRAK","updated_at":"2026-05-25T13:38:20.103174Z"}}}